Date,TemperatureHighF,TemperatureAvgF,TemperatureLowF,DewpointHighF,DewpointAvgF,DewpointLowF,HumidityHigh,HumidityAvg,HumidityLow,PressureMaxIn,PressureMinIn,WindSpeedMaxMPH,WindSpeedAvgMPH,GustSpeedMaxMPH,PrecipitationSumIn
2013-8-1,79.0,68.5,63.9,70.0,65.1,61.0,98,89,70,30.09,30.01,2,0,3,0.00
2013-8-2,82.2,68.5,58.9,70.0,64.1,58.0,98,86,58,30.14,30.05,4,0,4,0.00
2013-8-3,79.7,69.0,63.2,67.0,64.4,62.0,98,86,62,30.14,30.07,3,0,4,0.00
2013-8-4,79.4,68.6,62.9,70.0,63.3,56.0,98,84,63,30.15,30.08,2,0,3,0.00
2013-8-5,81.7,68.7,59.3,67.0,62.1,57.0,94,80,57,30.18,30.07,2,0,4,0.00
2013-8-6,82.3,69.7,63.1,70.0,65.6,62.0,97,87,64,30.12,30.05,2,0,7,0.07
2013-8-7,75.0,68.3,65.5,71.0,66.7,65.0,98,95,82,30.15,30.09,1,0,5,0.39
2013-8-8,79.3,70.2,65.9,73.0,68.1,65.0,98,93,78,30.16,30.11,2,0,4,0.00
2013-8-9,80.7,71.2,65.5,74.0,68.6,65.0,98,91,78,30.20,30.12,3,0,4,0.01
2013-8-10,75.1,70.2,67.1,72.0,68.6,65.0,98,94,88,30.23,30.17,1,0,4,0.29
2013-8-11,77.5,70.2,65.5,72.0,68.1,65.0,98,93,79,30.27,30.17,2,0,3,0.02
2013-8-12,81.6,70.3,64.9,73.0,67.8,64.0,98,92,68,30.22,30.08,2,0,5,0.01
2013-8-13,75.9,68.5,64.7,71.0,66.2,63.0,98,92,79,30.10,29.95,3,0,6,0.57
2013-8-14,76.4,65.8,61.0,65.0,62.5,59.0,98,89,58,30.15,30.01,2,0,4,0.00
2013-8-15,71.9,62.0,56.2,63.0,57.3,52.0,92,85,67,30.23,30.13,5,1,7,0.00
2013-8-16,66.9,60.2,55.0,59.0,55.8,53.0,94,85,72,30.27,30.18,4,0,6,0.00
2013-8-17,67.0,61.4,55.6,63.0,58.1,53.0,98,89,81,30.28,30.21,4,0,6,0.07
2013-8-18,75.0,64.0,59.9,68.0,62.4,59.0,99,94,75,30.33,30.23,2,0,6,0.20
2013-8-19,68.5,64.4,61.2,67.0,63.7,61.0,99,97,95,30.30,30.20,0,0,2,1.17
2013-8-20,76.2,66.9,62.6,70.0,65.1,62.0,98,94,77,30.30,30.22,2,0,6,0.00
2013-8-21,70.1,65.8,63.4,67.0,64.7,63.0,98,96,89,30.35,30.26,1,0,2,0.08
2013-8-22,79.4,67.8,62.2,71.0,65.7,62.0,99,93,74,30.31,30.15,3,0,4,0.38
2013-8-23,81.7,67.7,62.1,72.0,64.8,62.0,99,91,62,30.20,30.09,2,0,4,0.04
2013-8-24,76.0,65.3,60.1,69.0,62.3,57.0,99,90,72,30.40,30.19,3,0,5,0.00
2013-8-25,77.0,63.6,54.4,64.0,57.5,52.0,93,81,55,30.51,30.38,2,0,5,0.00
2013-8-26,77.9,64.2,54.5,64.0,58.9,53.0,97,84,58,30.45,30.27,2,0,4,0.00
2013-8-27,81.5,65.7,55.3,68.0,61.8,55.0,98,88,60,30.30,30.16,1,0,2,0.00
2013-8-28,83.1,69.1,61.4,71.0,65.3,61.0,98,88,64,30.19,30.07,2,0,3,0.00
2013-8-29,82.9,72.5,65.7,73.0,67.9,64.0,94,85,68,30.10,30.02,2,0,5,0.00
2013-8-30,84.4,71.4,65.7,73.0,67.8,65.0,97,88,62,30.12,30.01,2,0,3,0.00
2013-8-31,77.4,68.6,65.4,74.0,67.1,64.0,98,95,80,30.07,29.98,2,0,4,0.95